Date String (YYYY-MM-DD hh:mm:ss) UTC,Instrument flags,Ambient pressure (hPa),Sample flow (lpm),Bypass flow (lpm),Sample temperature (°C),Ambient temperature (°C),ASC tube jacket temperature (°C),LED temperature (°C),Box temperature (°C),Sample RH (%),Span deviation,Mass concentration (μg/m³),Mass concentration (μg/m³),Mass concentration (μg/m³)
DateTimeUTC,F1_M11,P_M11,Q1_M11,Q2_M11,T1_M11,T2_M11,T3_M11,T4_M11,T5_M11,U1_M11,ZSPAN_M11,X0_M11,X2_M11,X1_M11
2021-09-02 12:00:00,,0825.2,5.01,0.00,30.0,27.3,00.0,39.0,31.4,31.3,0001.4,0018.36,0013.63,0012.85
2021-09-02 12:01:00,,0825.2,5.00,0.00,29.8,26.3,00.0,39.0,31.2,31.6,0001.3,0018.29,0013.63,0012.83
2021-09-02 12:02:00,,0825.2,5.00,0.00,29.7,26.5,00.0,39.0,31.2,31.8,0001.4,0018.22,0013.58,0012.80
2021-09-02 12:03:00,,0825.2,5.00,0.00,29.7,26.9,00.0,38.9,31.2,31.9,0001.5,0018.24,0013.57,0012.78
2021-09-02 12:04:00,,0825.2,5.00,0.00,29.6,27.3,00.0,38.9,31.2,31.9,0001.7,0018.13,0013.54,0012.78
2021-09-02 12:05:00,,0825.2,5.01,0.00,29.6,27.6,00.0,38.9,31.3,31.8,0002.0,0018.13,0013.55,0012.79
2021-09-02 12:06:00,,0825.3,4.99,0.00,29.6,27.9,00.0,38.9,31.3,31.9,0001.9,0018.00,0013.49,0012.77
2021-09-02 12:07:00,,0825.4,5.01,0.00,29.7,28.1,00.0,38.9,31.4,31.8,0002.0,0017.96,0013.48,0012.74
2021-09-02 12:08:00,,0825.3,5.00,0.00,29.7,28.3,00.0,38.9,31.4,31.8,0002.1,0018.00,0013.50,0012.73
2021-09-02 12:09:00,,0825.4,5.00,0.00,29.7,28.4,00.0,38.9,31.5,31.8,0002.4,0017.67,0013.49,0012.72
2021-09-02 12:10:00,,0825.3,5.01,0.00,29.7,28.5,00.0,38.9,31.5,31.7,0002.6,0017.26,0013.47,0012.71
2021-09-02 12:11:00,,0825.4,5.00,0.00,29.8,28.6,00.0,38.9,31.5,31.7,0002.5,0017.18,0013.44,0012.68
2021-09-02 12:12:00,,0825.4,5.00,0.00,29.8,28.7,00.0,38.9,31.6,31.6,0002.5,0017.14,0013.40,0012.66
2021-09-02 12:13:00,,0825.3,5.01,0.00,29.8,28.8,00.0,38.9,31.6,31.6,0002.5,0017.16,0013.41,0012.66
2021-09-02 12:14:00,,0825.4,5.00,0.00,29.8,28.8,00.0,38.9,31.6,31.6,0002.5,0017.08,0013.38,0012.65
2021-09-02 12:15:00,,0825.3,4.99,0.00,29.9,28.9,00.0,38.9,31.7,31.5,0002.5,0016.99,0013.35,0012.65
2021-09-02 12:16:00,,0825.3,5.01,0.00,29.9,29.0,00.0,38.9,31.7,31.5,0002.5,0017.43,0013.36,0012.67
2021-09-02 12:17:00,,0825.4,5.00,0.00,29.9,29.0,00.0,38.9,31.7,31.4,0002.6,0017.65,0013.40,0012.68
2021-09-02 12:18:00,,0825.4,5.00,0.00,29.9,29.0,00.0,39.0,31.7,31.4,0002.5,0017.84,0013.42,0012.71
2021-09-02 12:19:00,,0825.3,4.99,0.00,30.0,29.1,00.0,39.0,31.7,31.4,0002.6,0017.82,0013.43,0012.73
2021-09-02 12:20:00,,0825.3,5.01,0.00,30.0,29.1,00.0,39.0,31.8,31.5,0002.4,0017.82,0013.43,0012.75
2021-09-02 12:21:00,,0825.4,4.99,0.00,30.0,29.2,00.0,39.0,31.8,31.5,0002.1,0017.78,0013.44,0012.77
2021-09-02 12:22:00,,0825.4,5.00,0.00,30.0,29.2,00.0,39.0,31.9,31.1,0002.4,0018.18,0013.45,0012.81
2021-09-02 12:23:00,,0825.5,5.00,0.00,30.1,29.2,00.0,39.1,31.9,31.0,0002.3,0018.54,0013.47,0012.83
2021-09-02 12:24:00,,0825.5,5.00,0.00,30.1,29.1,00.0,39.1,31.9,30.8,0002.0,0018.52,0013.47,0012.84
2021-09-02 12:25:00,,0825.4,5.00,0.00,30.0,27.4,00.0,39.1,31.4,30.9,0001.9,0018.45,0013.44,0012.83
2021-09-02 12:26:00,,0825.5,5.00,0.00,29.9,26.3,00.0,39.1,31.2,31.1,0001.9,0018.52,0013.46,0012.83
2021-09-02 12:27:00,,0825.5,5.00,0.00,29.8,26.4,00.0,39.0,31.2,31.3,0001.7,0018.02,0013.45,0012.81
2021-09-02 12:28:00,,0825.5,5.00,0.00,29.7,26.9,00.0,39.0,31.2,31.5,0001.7,0017.76,0013.39,0012.77
2021-09-02 12:29:00,,0825.4,5.00,0.00,29.7,27.3,00.0,38.9,31.2,31.5,0001.8,0017.41,0013.30,0012.71
2021-09-02 12:30:00,,0825.4,5.00,0.00,29.6,27.6,00.0,38.9,31.3,31.6,0001.5,0017.96,0013.30,0012.67
2021-09-02 12:31:00,,0825.5,5.01,0.00,29.7,27.9,00.0,38.9,31.3,31.8,0001.7,0018.17,0013.28,0012.64
2021-09-02 12:32:00,,0825.5,5.01,0.00,29.7,28.1,00.0,38.9,31.4,31.9,0001.9,0018.72,0013.27,0012.61
2021-09-02 12:33:00,,0825.4,4.99,0.00,29.7,28.3,00.0,38.9,31.4,31.8,0001.8,0018.54,0013.25,0012.58
2021-09-02 12:34:00,,0825.5,5.01,0.00,29.7,28.4,00.0,38.9,31.5,31.7,0001.8,0018.20,0013.23,0012.54
2021-09-02 12:35:00,,0825.5,5.01,0.00,29.7,28.5,00.0,38.9,31.5,31.8,0001.8,0018.17,0013.23,0012.52
2021-09-02 12:36:00,,0825.6,4.99,0.00,29.8,28.6,00.0,38.9,31.6,31.7,0001.8,0018.22,0013.23,0012.51
2021-09-02 12:37:00,,0825.6,5.00,0.00,29.8,28.7,00.0,38.9,31.6,31.7,0001.8,0018.27,0013.22,0012.50
2021-09-02 12:38:00,,0825.6,5.00,0.00,29.8,28.8,00.0,38.9,31.6,31.7,0001.6,0018.33,0013.23,0012.50
2021-09-02 12:39:00,,0825.6,5.00,0.00,29.8,28.8,00.0,38.9,31.6,31.7,0001.6,0018.35,0013.27,0012.52
2021-09-02 12:40:00,,0825.6,5.01,0.00,29.9,28.9,00.0,38.9,31.7,31.6,0001.6,0018.78,0013.38,0012.57
2021-09-02 12:41:00,,0825.7,4.99,0.00,29.9,28.9,00.0,38.9,31.7,31.6,0001.6,0019.30,0013.41,0012.58
2021-09-02 12:42:00,,0825.7,5.01,0.00,29.9,29.0,00.0,38.9,31.7,31.6,0001.5,0019.12,0013.46,0012.59
2021-09-02 12:43:00,,0825.7,5.00,0.00,29.9,29.0,00.0,39.0,31.7,31.6,0001.3,0019.08,0013.46,0012.59
2021-09-02 12:44:00,,0825.7,4.99,0.00,30.0,29.1,00.0,39.0,31.7,31.6,0001.3,0019.39,0013.51,0012.62
2021-09-02 12:45:00,,0825.7,5.00,0.00,30.0,29.1,00.0,39.0,31.8,31.6,0001.2,0019.38,0013.52,0012.66
2021-09-02 12:46:00,,0825.7,5.00,0.00,30.0,29.1,00.0,39.0,31.8,31.5,0001.4,0019.34,0013.52,0012.70
2021-09-02 12:47:00,,0825.7,4.99,0.00,30.0,29.2,00.0,39.0,31.9,31.4,0001.3,0019.30,0013.54,0012.73
2021-09-02 12:48:00,,0825.7,5.00,0.00,30.1,29.2,00.0,39.1,31.9,31.2,0001.2,0019.32,0013.58,0012.75
2021-09-02 12:49:00,,0825.7,5.01,0.00,30.1,29.1,00.0,39.1,31.9,31.2,0001.3,0019.33,0013.59,0012.75
2021-09-02 12:50:00,,0825.7,5.00,0.00,30.0,27.6,00.0,39.1,31.5,31.2,0001.3,0019.41,0013.60,0012.74
2021-09-02 12:51:00,,0825.7,5.00,0.00,29.9,26.4,00.0,39.1,31.2,31.4,0001.1,0019.16,0013.53,0012.72
2021-09-02 12:52:00,,0825.7,5.00,0.00,29.8,26.4,00.0,39.0,31.2,31.6,0001.2,0018.24,0013.49,0012.73
2021-09-02 12:53:00,,0825.7,5.00,0.00,29.7,26.8,00.0,39.0,31.2,31.9,0001.2,0018.10,0013.46,0012.75
2021-09-02 12:54:00,,0825.7,4.99,0.00,29.6,27.2,00.0,38.9,31.2,31.9,0001.5,0017.62,0013.42,0012.74
2021-09-02 12:55:00,,0825.7,4.99,0.00,29.6,27.6,00.0,38.9,31.3,31.9,0001.6,0016.80,0013.32,0012.71
2021-09-02 12:56:00,,0825.8,5.00,0.00,29.7,27.9,00.0,38.9,31.3,31.8,0001.9,0016.66,0013.28,0012.70
2021-09-02 12:57:00,,0825.7,5.00,0.00,29.7,28.1,00.0,38.9,31.4,31.8,0002.0,0016.61,0013.26,0012.70
2021-09-02 12:58:00,,0825.7,5.00,0.00,29.7,28.3,00.0,38.9,31.4,31.8,0002.1,0016.69,0013.29,0012.71
2021-09-02 12:59:00,,0825.7,5.00,0.00,29.7,28.4,00.0,38.9,31.5,31.8,0002.3,0016.68,0013.31,0012.73
